Regional Weather Roundup
Issued by NWS

Home | Current Version | Previous Version | Text Only | Print | Product List | Glossary Off
Versions: 1 2 3 4 5 6 7 8 9 10 11 12 13 14 15 16 17 18 19 20 21 22 23 24 25 26 27 28 29 30 31 32 33 34 35 36 37 38 39 40 41 42 43 44 45 46 47 48 49 50

000
ASUS45 KBOU 270107
RWRCO

WEATHER ROUNDUP FOR COLORADO
NATIONAL WEATHER SERVICE DENVER/BOULDER CO
700 PM MDT SUN APR 26 2015

NOTE: "FAIR" INDICATES FEW OR NO CLOUDS BELOW 12000 FEET WITH NO
SIGNIFICANT WEATHER AND/OR OBSTRUCTIONS TO VISIBILITY.

COZ001>005-013-030-031-270200-
...NORTHWEST COLORADO...

CITY           SKY/WX    TMP DP  RH WIND       PRES   REMARKS
CRAIG          CLOUDY    46  39  76 N18G26    29.88S
HAYDEN         PTSUNNY   46  37  71 W10       29.88R
MEEKER         LGT RAIN  44  38  79 VRB3      29.90R
MOUNT WERNER   NOT AVBL
STEAMBOAT SPGS CLOUDY    45  38  78 E13       29.88R
WALDEN         CLOUDY    41  28  60 E15G21    29.91R
$$

COZ006>008-011-270200-
...WEST CENTRAL VALLEYS...

CITY           SKY/WX    TMP DP  RH WIND       PRES   REMARKS
GRAND JUNCTION LGT RAIN  48  45  89 NE16      29.84R FOG
MONTROSE       CLOUDY    48  39  71 SE8       29.85R
EAGLE          MOCLDY    52  37  58 CALM      29.85R
RIFLE          CLOUDY    48  41  76 W12       29.86R
DELTA          CLOUDY    50  43  76 MISG      29.85R
NUCLA          CLOUDY    46  43  87 SE5       29.86S
$$

COZ017>023-064>068-270200-
...SOUTHWEST COLORADO...

CITY           SKY/WX    TMP DP  RH WIND       PRES   REMARKS
DURANGO        LGT RAIN  43  39  86 CALM      29.80R
CORTEZ         CLOUDY    52  38  58 N13       29.80R
PAGOSA SPRINGS LGT RAIN  41  37  84 CALM      29.83R
TELLURIDE      CLOUDY    36  34  92 CALM      29.90R
WOLF CREEK PAS NOT AVBL
$$

COZ009-010-012-014-032>034-037-058>063-270200-
...CENTRAL COLORADO...

CITY           SKY/WX    TMP DP  RH WIND       PRES   REMARKS
ASPEN          CLOUDY    43  37  79 N7        29.86R
BUENA VISTA    LGT RAIN  38  34  87 E7        29.94R
COPPER MTN     CLOUDY    32  28  86 E16       29.99R WCI  21
BERTHOUD PASS  HAZE      21  12  68 MISG      30.03R VSB<1/4
COTTONWOOD PAS SNOW      34  32  93 E9G17     29.96R VSB<1/4 WCI  26
GUNNISON       CLOUDY    43  34  70 N12       29.88R
KREMMLING      MOCLDY    46  36  66 N6        29.89R
LEADVILLE      LGT SNOW  31  30  96 S5        29.93R FOG     WCI  26
MONARCH PASS   CLOUDY    27  25  93 MISG      30.03R
SALIDA         CLOUDY    36  35  96 E5        30.01R
SUNLIGHT       FOG       34  32  93 N7        29.99R VSB 1   WCI  28
WILKERSON PASS SNOW     N/A N/A N/A MISG      30.02R VSB 1/4
$$

COZ069>075-270200-
...SAN LUIS VALLEY/SANGRE DE CRISTO MOUNTAINS...

CITY           SKY/WX    TMP DP  RH WIND       PRES   REMARKS
ALAMOSA        LGT RAIN  36  34  92 NE9       29.85S
LA VETA PASS   SNOW      28  27  93 MISG      29.91S VSB 1/2
SAGUACHE       LGT SNOW  32  32 100 CALM      29.90S
$$

COZ035-036-038>040-270200-
...NORTHERN COLORADO FRONT RANGE...

CITY           SKY/WX    TMP DP  RH WIND       PRES   REMARKS
DENVER INTL AP DRIZZLE   42  42 100 E12       29.98R FOG
DMNS CITY PARK   N/A     42  41  96 E6G14     29.98R
AURORA         CLOUDY    41  41 100 NE10      29.98R FOG
FRONT RANGE AP NOT AVBL
ERIE MUNI ARPT CLOUDY    43  42  95 E8        29.99R FOG
BOULDER MUN AP DRIZZLE   43  43 100 NE3       29.98R
CENTENNIAL     DRIZZLE   41  41 100 NE9       29.96R FOG
BROOMFIELD     LGT RAIN  43  41  93 N8        29.99R
FORT COLLINS   CLOUDY    43  39  87 E10       30.01R
LONGMONT       LGT RAIN  46  43  91 E9        30.01R
$$

COZ041-046-047-076>085-087-088-270200-
...PIKES PEAK/PALMER DIVIDE AND SOUTHERN FOOTHILLS...

CITY           SKY/WX    TMP DP  RH WIND       PRES   REMARKS
COLO. SPRINGS  LGT RAIN  41  40  96 E12       29.96R FOG
A. F. ACADEMY  RAIN      39  39  99 SW8       29.95R FOG
ELLICOTT       CLOUDY   N/A N/A N/A MISG      29.93R FOG
FALCON         LGT RAIN  39  39  99 E9        29.97R VSB 3/4
FORT CARSON    NOT AVBL
LIMON          CLOUDY    40  39  97 E12       29.97R FOG
MONUMENT HILL  FOG       37  36  93 E12       29.95R VSB 1/4
TRINIDAD       LGT RAIN  43  41  93 NE15      29.87R
$$

COZ042>045-048>051-090-091-270200-
...NORTHEAST COLORADO...

CITY           SKY/WX    TMP DP  RH WIND       PRES   REMARKS
GREELEY ARPT   CLOUDY    43  37  81 SE12      30.01R
AKRON          FOG       40  40 100 E16       29.98R VSB 1/4
BURLINGTON     CLOUDY    43  42  97 E13       29.97R FOG
WRAY           CLOUDY    46  46 100 NE10      29.99R
STERLING       LGT RAIN  43  41  93 E12       30.00R
HOLYOKE        CLOUDY    45  43  93 E13       30.01R FOG
FORT MORGAN    DRIZZLE   41  40  96 E13       30.00R
$$

COZ086-089-092>099-270200-
...SOUTHEAST COLORADO...

CITY           SKY/WX    TMP DP  RH WIND       PRES   REMARKS
PUEBLO         LGT RAIN  44  43  96 E15       29.92R
LA JUNTA       CLOUDY    47  43  86 E18       29.92R
LAMAR          CLOUDY    46  45  96 NE13      29.91F
SPRINGFIELD      N/A     44  44 100 E18       29.90R
$$


USA.gov is the U.S. government's official web portal to all federal, state and local government web resources and services.